User: anonymous   Login
Location: Santa Teresa Spring
(37.2333°N, 121.7000°W)
Time: 16:54:53
(UTC-07:00)
Language:

Cosmos 1633 - Orbit

View from above orbital plane
View from above orbital plane
View from above satellite
View from above satellite

Ground track
Ground track

The orbit data is extracted from the following two-line orbital elements,

1 15592U 85020A   15215.80657624  .00003779  00000-0  15212-3 0  9999
2 15592 082.5393 282.2675 0016755 070.7270 070.7119 15.24436389660027
Epoch (UTC): 03 August 2015 19:21:28
Eccentricity: 0.0016755
inclination: 82.5393°
perigee height: 481 km
apogee height: 504 km
right ascension of ascending node: 282.2675°
argument of perigee: 70.7270°
revolutions per day: 15.24436389
mean anomaly at epoch: 70.7119°
orbit number at epoch: 66002

The dashed part of the orbit path shows where the satellite is in the earth's shadow,  

DLR